Location: B?dimalle
(17.1788°N, 80.5377°E)
Time: 11:38:07
(UTC+00:00)

Courier 1B Rocket - Pass Details

Date: 21 December 2025
Orbit: 920 x 1201 km, 28.2° (Epoch: 25 January)

Event Time Altitude Azimuth Distance (km) Brightness Sun altitude
Rises 13:48:24 0° 270° (W) 3,984 9.4 -22.9°
Reaches altitude 10° 13:51:19 10° 277° (W) 3,056 8.5 -23.6°
Maximum altitude 13:58:33 44° 347° (NNW) 1,581 6.0 -25.2°
Enters shadow 14:00:39 37° 24° (NNE) 1,762 6.0 -25.7°
